COSMOS 2251 DEB, 40228

Orbit data source: Space-Track

COSMOS 2251 DEB, 40228 is space debris in LEO originally from a launch on Wed, 16 Jun 1993 UTC launched from the Plesetsk Missile And Space Complex (PKMTR). The debris from Iridium 33, an American commercial communications satellite, has been tracked extensively since its accidental collision with the defunct Russian satellite Cosmos 2251 in 2009. This event, occurring at high speed in low Earth orbit (LEO), generated thousands of pieces of space debris, significantly increasing the risk of further collisions. The Iridium 33 debris cloud has impacted space traffic management and orbital debris mitigation strategies, making it a subject of ongoing study in space situational awareness.

Loading next visibility...
Identifier
40228, 1993-036BVH
Orbit
LEO
Country
Flag of CISCIS
Related business
Manufacturer
Unknown
Mission
Spacecraft
Bus & Motor
Unknown
Mass
Unknown
Launch date (UTC)
1993-06-16 (32 years ago)
Launch vehicle
Unknown
Launch site
Plesetsk Missile And Space Complex (PKMTR)
Object type
Payload
Rocket body
Debris
Shape & HBR
Unknown shape, 0.1 m
Radar Cross Section
Small (<0.1 m²)

Expand to show TLE details & history
Last TLE update: 1 week ago

TLE from 1 week ago
0 COSMOS 2251 DEB
1 40228U 93036BVH 25298.41763221  .00001137  00000-0  36197-3 0  9990
2 40228  74.0562 349.8485 0022202  63.8975 313.0020 14.40841012582255
Epoch: 2025-10-25T10:01Z
TLE epoch observation values (Epoch: 2025-10-25T10:01:23.422Z)
Latitude
16.03962°
Longitude
170.13834°
Altitude
746.887 km
Speed
7.488 km/s
True Right ascension
23h 38m 08s
True Declination
15° 56' 54"
Sunlit
Object was in full shadow at epoch
Visualization orbit readout
Latitude
Unknown
Longitude
Unknown
Altitude
Unknown
Speed
Unknown
Apparent Right ascension
Unknown
Apparent Declination
Unknown
Sunlit
N/A
Visualization observer readout
Local Sidereal Time
07:05:54
Azimuth
Unknown
Elevation
Unknown
Doppler factor
Unknown
Orbital elements
Apogee altitude
769.171 km
Perigee altitude
737.505 km
Semi-major axis
7,131.475 km
Eccentricity
0.00222
Inclination
74.0562°
RAAN
349.8485°
Arg. of periapsis
63.8975°
True anomaly
312.81559°
Mean anomaly
313.002°
Eccentric anomaly
312.90883°
Mean motion
3.60391 °/min
Orbital period
99.89 mins
BSTAR
0.00036197

Documentation

Showing up to 5 results
|